Printer-friendly version

IAU Minor Planet Center

Minor Planet Center

MPEC 2008-P35 : 2008 PG7

The following Minor Planet Electronic Circular may be linked-to from your own Web pages, but must not otherwise be redistributed electronically.

A form allowing access to any MPEC is at the bottom of this page.


Read MPEC 2008-P34 Read MPEC 2008-P36


M.P.E.C. 2008-P35                                Issued 2008 Aug. 7, 22:08 UT

     The Minor Planet Electronic Circulars contain information on unusual
         minor planets and routine data on comets.  They are published
   on behalf of Commission 20 of the International Astronomical Union by the
          Minor Planet Center, Smithsonian Astrophysical Observatory,
                          Cambridge, MA 02138, U.S.A.

             Prepared using the Tamkin Foundation Computer Network

                              MPC@CFA.HARVARD.EDU
          URL http://www.cfa.harvard.edu/iau/mpc.html  ISSN 1523-6714

                                   2008 PG7

Observations:
     K08P07G*tC2008 08 06.96568 21 22 48.10 -04 43 56.6          18   V EP035J75
     K08P07G tC2008 08 06.97900 21 22 47.23 -04 46 14.0                 EP035J75
     K08P07G tC2008 08 06.99219 21 22 46.36 -04 48 30.6                 EP035J75
     K08P07G  C2008 08 07.02180 21 22 44.20 -04 53 30.7          18.7 R EP035620
     K08P07G  C2008 08 07.02922 21 22 43.71 -04 54 46.4          18.6 R EP035620
     K08P07G  C2008 08 07.02954 21 22 43.53 -04 54 55.0          19.7 V EP035151
     K08P07G  C2008 08 07.03352 21 22 43.25 -04 55 34.9          19.7 V EP035151
     K08P07G  C2008 08 07.03551 21 22 43.14 -04 55 55.4          19.7 V EP035151
     K08P07G  C2008 08 07.03662 21 22 43.21 -04 56 02.6          18.9 R EP035620
     K08P07G  C2008 08 07.03750 21 22 43.04 -04 56 15.8          19.5 V EP035151
     K08P07G  C2008 08 07.03949 21 22 42.92 -04 56 36.3          19.6 V EP035151
     K08P07G  C2008 08 07.05321 21 22 42.09 -04 58 52.8          18.1 R EP035620
     K08P07G  C2008 08 07.06104 21 22 41.58 -05 00 13.3          18.5 R EP035620
     K08P07G  C2008 08 07.06869 21 22 41.12 -05 01 31.1          18.5 R EP035620
     K08P07G  C2008 08 07.15494 21 22 37.10 -05 15 39.4          19.2 R EP035I77
     K08P07G  C2008 08 07.15753 21 22 36.93 -05 16 06.0                 EP035I77
     K08P07G  C2008 08 07.16012 21 22 36.76 -05 16 33.2                 EP035I77
     K08P07G  C2008 08 07.25048 21 22 32.75 -05 32 51.1          19.8   EP035H36
     K08P07G  C2008 08 07.27113 21 22 31.42 -05 36 27.1          19.0   EP035H36
     K08P07G  C2008 08 07.27625 21 22 31.18 -05 37 18.4          18.9   EP035H36
     K08P07G  C2008 08 07.83550 21 22 02.40 -07 16 31.4          19.2 V EP035104
     K08P07G  C2008 08 07.83766 21 22 02.13 -07 16 59.3          18.6 V EP035104
     K08P07G  C2008 08 07.83978 21 22 02.09 -07 17 22.1          19.0 V EP035104
     K08P07G  C2008 08 07.84185 21 22 01.87 -07 17 44.1          19.1 V EP035104

Observer details:
104 San Marcello Pistoiese.  Observers L. Tesi, G. Fagioli, M. Mazzucato.
    Measurer L. Tesi.  0.60-m f/4 reflector + CCD.
151 Eschenberg Observatory, Winterthur.  Observer M. Griesser.  0.40-m f/5.9
    Hypergraph + CCD.
620 Observatorio Astronomico de Mallorca.  Observers S. Sanchez, S. Cikota,
    R. Stoss, J. Nomen, J. Rodriguez, A. Cikota.  0.30-m f/9
    Schmidt-Cassegrain + CCD.
H36 Sandlot Observatory, Scranton.  Observer G. Hug.  0.56-m reflector + CCD.
I77 CEAMIG-REA Observatory, Belo Horizonte.  Observers C. Jacques, E. Pimentel.
    Measurer C. Jacques.  0.30-m f/3.0 reflector + CCD.
J75 OAM Observatory, La Sagra.  Observers S. Sanchez, J. Nomen, R. Stoss,
    J. Rodriguez, A. Cikota, S. Cikota, J. L. Ortiz, N. Morales.  0.45-m f/2.8
    reflector + CCD.

Orbital elements:
2008 PG7                                                 Earth MOID = 0.1630 AU
Epoch 2008 May 14.0 TT = JDT 2454600.5                  MPC
M 278.34162              (2000.0)            P               Q
n   0.51442790     Peri.  253.83393     +0.70111472     -0.56925455
a   1.5425990      Node   137.89792     +0.57554076     +0.80729394
e   0.3773748      Incl.   39.82667     -0.42094059     +0.15564625
P   1.92           H   21.4           G   0.15           U   9
Residuals in seconds of arc
080806 J75  0.2+  0.5+    080807 620  0.0   0.3+    080807 I77  0.1-  0.3-
080806 J75  0.2+  1.0-    080807 151  0.4+  0.1-    080807 H36  1.0-  0.2-
080806 J75 (0.1+  3.0-)   080807 151  0.5+  0.2-    080807 H36  0.2-  1.0-
080807 620  0.2+  0.5+    080807 620  0.5-  0.1+    080807 H36  1.4+  1.1+
080807 620  0.2+  0.7+    080807 620  0.5-  0.2-    080807 104 (1.5+  4.0+)
080807 151  0.1+  0.8-    080807 620  0.1+  0.5+    080807 104  0.5-  0.4-
080807 151  0.3-  0.1+    080807 I77  0.4-  0.0     080807 104  0.9+  0.1-
080807 151  0.0   0.1-    080807 I77  0.3-  0.1+    080807 104  0.4-  0.5+

Ephemeris:
2008 PG7                 a,e,i = 1.54, 0.38, 40                  q = 0.9605
Date    TT    R. A. (2000) Decl.     Delta      r     Elong.  Phase     V
2008 08 02    21 26.22   +06 51.9    0.249    1.243   153.8    21.1    19.9
2008 08 12    21 17.33   -21 39.2    0.176    1.188   172.9     6.1    18.5
2008 08 22    20 53.76   -61 15.1    0.184    1.136   128.8    43.9    19.7
2008 09 01    18 32.03   -84 26.9    0.258    1.087   100.8    65.7    21.0
2008 09 11    10 57.81   -81 43.1    0.350    1.044    86.3    74.2    21.8

Sonia Keys                   (C) Copyright 2008 MPC           M.P.E.C. 2008-P35

Read MPEC 2008-P34 Read MPEC 2008-P36


MPEC number:

Enter an
MPEC number in one of the following forms:
  • 1997-B01 (the full form)
  • J97B01 (the packed version of the full form)
  • B01 (the abbreviated form)

Valid HTML 4.01!